Regional Weather Roundup
Issued by NWS

Home | Current Version | Previous Version | Text Only | Print | Product List | Glossary On
Versions: 1 2 3 4 5 6 7 8 9 10 11 12 13 14 15 16 17 18 19 20 21 22 23 24 25 26 27 28 29 30 31 32 33 34 35 36 37 38 39 40 41 42 43 44 45 46 47 48 49 50
000
ASUS44 KJAN 020003
RWRMS

MISSISSIPPI HOURLY WEATHER ROUNDUP
NATIONAL WEATHER SERVICE JACKSON MS
700 PM CDT TUE SEP 01 2015

NOTE: "FAIR: INDICATES FEW OR NO CLOUDS BELOW 12,000 FEET WITH NO
SIGNIFICANT WEATHER AND/OR OBSTRUCTIONS TO VISIBILITY.

MSZ001>002-007>008-010>013-018>021-025>028-034>036-020100-
NORTHWEST MISSISSIPPI

CITY           SKY/WX    TMP DP  RH WIND       PRES   REMARKS
CLARKSDALE     FAIR      84  73  70 NE3       30.05R HX  91
CLEVELAND      FAIR      82  78  89 N3        30.03R HX  90
GREENWOOD      CLOUDY    86  71  60 NE5       30.02R HX  91
6HR MIN TEMP:  86; 6HR MAX TEMP:  95;

GREENVILLE     CLOUDY    84  68  58 NE6       30.02R
6HR MIN TEMP:  84; 6HR MAX TEMP:  93;

OXFORD         FAIR      81  70  69 E5        30.07F
$$

MSZ003>006-009-014>017-022>024-029>033-037>039-020100-
NORTHEAST MISSISSIPPI

CITY           SKY/WX    TMP DP  RH WIND       PRES   REMARKS
COLUMBUS AFB   PTCLDY    84  70  63 NE2       30.04S
6HR MIN TEMP:  84; 6HR MAX TEMP:  90;

CORINTH        FAIR      79  72  78 CALM      30.07R
STARKVILLE     FAIR      82  66  57 E3        30.05R
TUPELO         PTCLDY    83  69  62 NE5       30.06R
6HR MIN TEMP:  83; 6HR MAX TEMP:  89;

$$

MSZ040-058-020100-
CENTRAL MISSISSIPPI

CITY           SKY/WX    TMP DP  RH WIND       PRES   REMARKS
JACKSON INTL   CLOUDY    78  71  79 VRB3      30.03R
6HR MIN TEMP:  76; 6HR MAX TEMP:  97; 6HR PCP:  0.10;

JACKSON HAWKNS LGT RAIN  73  71  93 NE8       30.04F FOG
6HR MIN TEMP:  72; 6HR MAX TEMP:  96; 6HR PCP:  1.49;

MERIDIAN KEY   MOCLDY    85  71  63 SE5       30.02S HX  90
6HR MIN TEMP:  85; 6HR MAX TEMP:  93;

MERIDIAN NAS   MOCLDY    86  70  58 E6        30.03R HX  90
6HR MIN TEMP:  86; 6HR MAX TEMP:  93;

VICKSBURG      CLOUDY    84  76  76 CALM      30.02R HX  93
6HR MIN TEMP:  84; 6HR MAX TEMP:  93;

$$

MSZ059>079-020100-
SOUTH MISSISSIPPI

CITY           SKY/WX    TMP DP  RH WIND       PRES   REMARKS
BROOKHAVEN     FAIR      88  64  45 S3        30.04S
HATTIESBURG    PTCLDY    90  66  45 S9        30.02R HX  92
6HR MIN TEMP:  90; 6HR MAX TEMP:  96;

MCCOMB         PTCLDY    87  66  49 SW5       30.02R
6HR MIN TEMP:  87; 6HR MAX TEMP:  94;

NATCHEZ        MOCLDY    81  66  61 NE7       30.05R
6HR MIN TEMP:  81; 6HR MAX TEMP:  91;

PINE BELT      PTCLDY    88 N/A N/A S3        30.04R
6HR MIN TEMP:  88; 6HR MAX TEMP:  93;

$$

MSZ080>082-020100-
COASTAL MISSISSIPPI

CITY           SKY/WX    TMP DP  RH WIND       PRES   REMARKS
BAY ST LOUIS   CLEAR     82  66  57 S3        30.03S
BILOXI         PTCLDY    83  71  66 SW7       30.02S
6HR MIN TEMP:  83; 6HR MAX TEMP:  92;

PASCAGOULA     PTCLDY    83  72  69 SW3       30.02F
6HR MIN TEMP:  83; 6HR MAX TEMP:  92;

GULFPORT       PTCLDY    84  71  65 CALM      30.02S
6HR MIN TEMP:  84; 6HR MAX TEMP:  92;

$$


USA.gov is the U.S. government's official web portal to all federal, state and local government web resources and services.